Wind_Speed
8 7 8 8 8 8 7 7 7 7 6 5 5 5 6 6 6 6 6 6 5 5 5 5 5 4 4 3 3 4 3 2 3 4 3 3 3 3 3 4 4 5 5 4 5 6 6 6 6 6 5 7 9 8 8 8 10 13 14 16 16 15 13 10 8 7 8 10 12 14 15 17 15 13 14 15 15 15 15 15 16 17 18 20 21 23 24 24
9 9 9 9 8 8 7 7 7 7 7 7 8 8 9 9 9 9 8 8 7 7 6 6 5 5 4 4 4 4 3 2 3 2 1 2 3 3 4 4 4 5 6 5 5 6 7 7 6 6 7 8 9 8 8 9 10 11 12 14 13 12 12 10 7 5 5 9 11 13 14 15 14 13 14 15 15 15 15 16 17 18 20 21 22 23 24 25
10 11 11 11 10 10 10 10 10 10 11 11 11 12 11 11 11 11 10 10 9 9 8 7 7 6 5 5 5 5 3 2 3 2 2 3 4 5 4 4 5 6 6 6 6 7 7 8 7 6 7 8 9 9 9 9 9 8 9 9 6 6 9 10 8 6 7 9 11 12 12 12 12 13 15 15 16 16 16 16 17 18 19 20 21 23 24 24
11 12 12 12 12 12 12 12 12 13 13 12 12 12 11 11 11 11 11 10 10 10 9 9 8 7 7 6 6 6 5 4 4 3 4 6 6 5 5 5 5 5 6 6 7 7 8 9 8 7 7 8 10 10 10 9 7 8 9 6 2 2 6 8 9 10 11 10 10 10 11 12 13 14 15 17 18 18 17 16 16 17 18 20 21 22 23 24
10 11 11 11 11 11 11 11 12 12 11 11 11 10 10 10 10 10 10 10 10 11 11 10 9 8 8 7 7 6 6 6 6 6 7 7 7 7 7 7 6 6 6 6 7 7 8 8 8 8 7 8 9 9 9 8 7 8 8 5 4 5 7 9 10 12 13 11 11 11 12 13 14 14 16 17 18 19 17 17 17 18 19 19 20 22 23 24
9 9 9 9 8 9 9 9 10 10 10 10 10 10 10 10 11 11 11 11 11 11 11 11 10 10 9 8 8 7 7 7 6 7 8 8 9 9 8 8 8 7 7 6 6 6 7 8 7 8 8 8 9 9 8 8 9 9 8 7 8 9 11 13 14 14 15 14 15 15 15 16 17 17 18 18 18 18 17 17 17 18 19 19 20 21 23 24
7 7 7 7 6 6 7 7 8 8 9 9 10 10 11 11 12 11 11 11 11 11 11 11 10 10 9 9 8 8 7 6 6 6 8 9 9 9 9 8 8 8 8 7 6 6 7 7 7 8 8 8 9 10 10 9 10 9 9 11 12 12 14 16 17 18 17 17 18 19 19 20 20 20 21 20 19 18 17 16 16 17 18 20 21 22 22 23
5 5 6 6 5 5 5 6 6 7 8 8 9 10 11 12 12 12 12 12 13 12 11 11 10 10 10 10 9 9 8 7 6 7 8 9 8 9 8 8 8 7 7 7 6 5 5 5 5 6 6 7 8 11 12 11 10 9 9 12 14 15 16 17 18 19 20 20 22 22 22 22 22 22 21 20 19 18 17 16 17 17 18 20 21 23 23 23
5 4 5 5 5 4 4 5 6 7 7 8 9 10 11 12 13 13 13 13 14 13 12 11 11 11 10 10 10 9 8 8 8 8 8 8 7 7 7 7 7 7 7 7 5 4 5 5 5 4 5 6 7 10 12 11 10 10 10 11 11 13 15 17 19 20 22 23 24 22 22 23 23 22 20 18 18 17 18 18 18 19 19 20 21 22 24 25
5 4 4 5 5 4 4 5 6 7 8 9 10 11 12 13 13 13 13 14 15 14 13 12 12 11 11 10 9 8 8 8 8 7 7 7 6 6 6 6 6 7 7 6 5 6 7 7 7 6 7 7 6 8 10 11 11 10 11 11 11 12 15 17 18 20 22 23 23 22 22 23 22 20 17 17 16 16 17 18 19 19 20 21 21 22 23 24
5 4 4 5 5 5 5 6 7 8 9 10 11 11 12 13 13 13 13 15 15 14 14 13 12 12 10 9 8 6 7 6 5 5 5 5 6 5 5 5 5 5 6 5 5 6 6 6 7 7 6 6 5 6 8 9 11 11 11 11 12 14 16 18 18 19 20 21 21 21 21 22 19 18 16 15 14 14 15 17 18 19 20 21 22 23 24 24
5 5 5 5 6 6 7 7 8 9 9 10 11 11 11 12 12 12 14 15 14 14 14 13 12 10 9 7 6 5 5 5 5 5 5 5 5 6 6 5 5 5 5 5 5 4 4 5 4 4 4 4 5 5 6 7 9 9 9 9 9 11 14 16 17 16 17 16 17 16 16 18 17 16 17 16 16 15 15 16 17 18 19 21 21 22 23 24
6 7 7 8 8 9 9 9 9 10 10 10 11 11 11 12 12 13 15 16 15 14 14 12 9 8 7 6 5 5 5 5 6 6 6 6 6 7 7 6 6 6 6 6 6 4 3 3 3 3 4 5 6 5 5 6 7 6 6 6 6 7 9 11 11 11 13 13 14 14 14 18 19 17 18 19 18 17 16 16 17 18 19 20 21 21 21 22
8 9 9 10 10 11 11 11 10 10 10 10 10 11 12 12 13 14 16 16 16 15 13 10 8 6 5 5 5 5 5 6 7 7 7 8 7 7 7 6 5 4 5 5 4 3 3 4 5 6 6 6 5 5 4 5 6 5 4 3 2 3 3 6 8 7 10 12 14 14 15 20 21 19 19 19 19 19 18 18 18 19 21 22 23 23 22 22
10 11 12 12 12 12 12 12 11 10 10 10 10 10 11 12 13 15 16 16 15 14 12 9 7 6 5 5 6 6 7 8 7 7 7 7 7 6 5 4 2 2 2 2 2 2 3 4 5 5 5 3 3 3 3 4 3 3 3 3 1 1 2 5 8 7 10 12 14 14 14 19 20 19 19 20 21 20 20 20 21 22 23 24 24 23 22 21
12 13 14 14 14 14 13 13 11 10 9 9 9 10 10 12 14 15 15 15 13 11 9 8 6 5 4 5 8 8 8 8 8 8 8 6 6 5 4 3 2 1 1 2 1 2 1 2 3 3 2 1 1 3 2 2 2 3 3 2 2 3 3 5 7 8 11 13 14 14 14 17 19 20 21 21 21 21 21 22 23 24 24 23 22 21 20 19
14 14 15 15 15 14 13 13 11 9 8 8 8 9 10 13 14 15 14 12 10 8 7 6 6 5 5 7 8 8 8 9 9 8 6 6 6 6 6 5 3 1 1 1 1 1 1 1 1 0 0 1 2 1 1 0 0 2 2 3 5 6 5 5 5 6 9 12 13 14 15 17 20 21 22 22 21 21 21 23 24 23 22 21 20 19 19 18
12 12 12 12 11 10 10 9 7 6 6 7 8 9 11 13 14 13 11 8 7 5 5 7 7 6 6 9 9 10 11 10 10 8 6 7 7 6 7 6 3 2 1 1 0 1 2 0 0 1 1 2 3 4 5 4 4 6 5 5 4 6 6 3 1 2 5 9 11 12 14 16 18 19 20 21 21 21 22 22 22 21 21 20 19 19 19 18
10 10 9 9 9 9 8 7 6 5 5 7 8 10 12 13 12 11 7 5 5 6 7 8 9 9 9 10 10 11 11 11 10 9 8 8 7 7 8 5 3 3 1 0 0 2 2 2 2 2 5 7 8 9 10 8 7 6 4 3 2 2 3 4 1 0 2 6 9 10 12 14 15 17 18 20 21 21 21 21 20 20 19 18 18 18 18 19
9 8 8 8 9 9 9 8 7 6 6 8 10 11 12 12 11 8 4 3 5 9 11 10 12 12 11 10 10 9 10 11 10 9 8 7 7 7 6 6 5 4 3 2 2 3 3 4 8 10 11 11 10 9 9 8 7 4 2 1 3 4 3 3 2 1 2 6 8 10 12 14 15 17 18 19 20 19 19 20 19 18 17 17 17 17 17 18
7 7 7 7 8 8 8 9 9 7 7 9 10 10 10 9 7 5 2 3 7 12 12 12 13 12 10 10 9 10 11 10 9 8 7 7 7 6 5 5 4 3 3 3 4 4 2 7 14 14 12 11 9 7 7 6 5 2 0 0 4 6 3 1 1 2 3 7 10 12 13 13 14 16 17 17 17 18 18 19 18 16 16 16 16 16 17 18
7 7 8 8 8 9 9 10 9 8 8 9 9 9 8 6 5 2 1 4 11 14 12 12 12 11 10 10 10 11 8 5 7 8 8 8 8 7 6 6 4 3 6 5 3 2 5 12 14 11 10 10 8 7 5 4 3 1 1 1 4 6 3 2 3 4 5 8 11 12 11 12 13 15 16 16 17 17 18 19 17 14 14 15 15 15 16 18
9 10 10 10 10 10 10 9 9 8 9 9 9 8 6 5 3 2 3 6 13 14 12 11 11 12 11 9 10 10 6 5 8 10 10 9 9 9 7 7 6 6 9 8 3 2 8 13 12 9 8 7 6 5 3 2 1 2 2 1 4 7 3 3 5 6 6 9 9 8 9 12 13 14 15 16 16 17 18 19 16 13 14 14 14 15 16 17
12 12 11 11 10 9 9 9 9 9 9 8 7 6 5 4 1 4 5 8 14 14 12 11 11 13 12 10 10 9 9 10 10 12 11 9 9 9 8 8 6 6 11 10 7 9 12 12 9 8 6 5 4 3 3 4 4 5 4 4 5 6 4 4 5 5 7 9 7 5 7 11 12 13 15 15 16 16 17 17 14 12 13 14 13 14 15 17
12 12 11 10 9 9 10 9 9 9 8 7 6 6 5 3 1 5 5 7 14 14 12 11 11 13 12 13 12 9 10 13 12 12 11 8 9 8 7 8 7 8 12 10 9 14 15 10 7 6 4 5 5 6 8 8 7 7 7 5 3 3 3 5 5 5 8 8 6 4 4 6 10 13 15 15 15 15 16 14 11 11 13 13 13 14 16 18
12 12 11 11 10 10 10 9 9 8 7 6 5 5 3 1 2 5 5 7 13 15 13 11 11 13 12 13 15 10 8 12 13 12 10 8 8 8 7 9 9 10 9 6 10 15 14 10 8 8 8 8 9 11 12 10 9 10 9 6 4 3 3 6 6 5 6 6 6 6 5 6 12 15 15 14 15 15 14 12 9 11 12 12 13 14 17 20
13 12 12 11 10 10 9 8 7 7 6 5 5 4 2 0 4 6 4 5 9 13 13 12 13 13 13 15 15 11 9 11 11 9 8 7 8 7 7 9 10 10 7 4 11 16 12 9 10 10 10 9 12 15 14 11 11 11 9 5 4 4 3 4 4 4 6 6 7 8 9 9 12 13 12 13 15 14 12 9 9 11 12 12 14 16 18 21
12 12 11 10 9 9 8 7 6 6 5 4 4 2 0 2 6 5 3 3 5 9 10 11 13 13 14 14 13 12 11 10 9 9 9 8 7 5 5 10 11 12 10 5 10 15 12 10 12 12 11 12 15 15 14 12 11 11 9 5 4 4 2 1 1 3 6 6 7 9 10 8 9 12 13 14 14 13 10 9 10 11 12 13 15 17 20 22
11 10 10 9 9 8 7 7 6 5 4 3 2 1 2 6 8 5 4 3 3 7 8 8 9 11 12 10 10 12 11 11 13 13 9 7 6 4 7 13 10 10 13 10 13 16 12 12 12 12 14 14 13 12 12 13 13 13 10 6 4 2 0 1 1 4 4 5 6 6 9 7 7 13 14 12 12 12 11 11 11 11 12 15 17 20 22 24
10 10 10 10 9 8 7 7 5 5 4 3 2 2 5 9 9 4 4 3 4 7 7 7 8 9 9 8 9 12 12 15 16 13 10 7 6 4 8 13 10 9 13 13 15 15 12 12 12 13 15 14 12 11 11 13 15 14 11 7 2 2 1 2 2 4 3 3 5 3 5 7 5 10 12 10 12 13 14 13 11 11 14 17 19 21 23 26
11 10 10 10 9 8 8 7 5 4 3 3 1 3 7 9 6 3 4 4 6 7 7 8 8 8 8 8 11 13 13 16 15 12 11 9 8 6 8 10 9 9 11 13 14 13 11 11 12 13 12 12 11 11 11 13 15 14 13 10 3 3 2 1 1 3 2 3 5 3 3 6 8 10 12 13 14 15 16 14 11 13 16 19 20 22 25 28
11 10 10 10 9 8 7 6 5 4 3 2 2 3 6 6 4 6 7 6 5 6 6 7 8 8 9 9 12 13 13 16 16 13 13 12 10 11 12 11 9 8 9 9 10 9 8 10 12 11 9 11 11 11 12 13 16 16 15 14 7 3 3 1 2 1 3 4 5 4 7 8 14 16 15 15 16 17 16 13 12 15 18 20 22 24 27 30
10 10 9 8 8 7 7 6 5 4 2 1 2 3 4 3 5 8 9 6 5 6 5 6 7 9 8 9 12 13 13 15 15 14 15 14 13 14 15 12 11 9 7 7 6 4 5 7 10 10 10 11 12 13 15 15 18 19 18 14 7 3 3 2 3 2 4 7 8 12 12 10 13 14 13 16 18 16 14 12 14 17 19 22 24 27 30 32
10 9 8 8 8 7 7 6 5 4 3 2 4 4 3 5 7 9 9 8 8 8 5 6 7 9 9 10 11 12 12 13 13 12 12 12 13 14 14 12 11 10 6 5 5 5 3 4 8 11 10 12 13 13 15 15 15 19 18 12 6 2 2 2 3 2 5 9 13 16 9 5 8 11 14 17 17 15 14 14 17 20 22 24 26 29 32 33
9 9 9 9 8 7 6 6 5 4 4 5 5 4 5 9 11 11 11 10 10 8 6 6 7 9 10 11 10 10 10 11 11 11 10 11 12 12 12 11 11 10 8 6 6 6 4 4 8 11 11 13 14 13 14 14 12 17 17 11 9 6 3 5 7 8 9 8 10 9 7 9 14 16 17 17 15 14 14 16 19 22 25 27 29 31 33 34
9 9 9 8 6 6 5 5 5 3 5 6 5 6 10 12 13 13 11 10 8 7 6 6 6 7 8 9 9 9 10 9 8 8 9 11 12 10 9 10 10 10 10 8 8 7 6 5 8 10 11 13 13 13 15 14 12 15 16 14 12 8 6 7 9 10 8 4 5 6 9 14 15 14 15 14 13 14 15 18 21 24 27 29 31 33 34 34
8 8 8 6 5 5 5 5 4 5 6 5 5 10 15 15 13 12 11 9 7 6 5 4 4 5 6 6 7 7 7 7 6 6 7 8 8 9 9 9 9 10 9 8 9 9 8 6 6 9 11 14 14 15 16 14 13 14 14 15 12 7 5 5 5 6 4 1 5 7 11 15 12 12 14 13 13 15 17 21 24 26 29 31 33 34 34 34
7 7 7 6 6 5 5 5 6 7 8 6 10 16 17 16 14 12 10 9 7 5 4 5 6 7 6 6 7 6 6 5 5 5 6 6 6 7 7 7 8 9 9 9 9 10 9 7 6 8 11 14 16 17 16 14 14 14 13 16 13 5 5 4 3 4 2 1 4 7 11 15 15 13 15 16 17 18 20 24 28 29 32 33 33 33 33 34
7 7 6 6 6 5 5 7 9 10 7 7 15 19 16 16 15 12 11 9 8 6 5 6 7 7 7 6 6 6 6 6 5 5 5 5 4 5 6 7 8 8 9 10 10 11 10 7 5 9 13 15 16 16 15 15 16 14 13 16 15 7 6 7 5 4 3 2 4 5 6 10 13 15 20 23 22 21 24 29 31 32 33 33 32 33 34 34
6 6 5 6 7 5 6 9 12 10 7 10 17 19 17 16 14 11 10 8 8 8 8 8 8 7 7 6 5 5 5 5 5 5 4 4 4 5 6 6 8 8 8 9 10 11 12 8 7 11 14 14 14 15 16 18 17 14 13 16 16 11 7 9 9 9 7 2 2 2 5 14 20 21 25 24 21 23 30 34 35 34 32 31 32 34 34 34
6 5 5 6 7 8 10 12 12 9 10 16 18 18 18 16 13 11 10 9 9 10 10 9 8 7 6 5 5 4 4 4 4 4 4 5 4 4 6 6 7 8 8 9 10 10 12 10 11 14 16 15 15 16 16 17 16 15 15 15 16 15 10 6 6 9 10 7 5 3 6 22 30 26 24 23 24 31 35 35 35 33 31 31 32 34 35 35
6 6 6 5 7 11 12 11 12 12 15 19 19 18 17 15 14 13 11 11 10 10 10 9 7 6 5 4 4 3 3 3 3 4 4 5 5 6 7 7 8 9 10 10 10 11 13 11 12 16 17 16 15 14 13 13 14 15 16 17 17 16 13 6 5 8 10 9 11 7 6 21 31 26 25 28 31 35 36 34 35 33 31 31 33 34 35 36
6 6 7 5 7 12 10 8 13 15 17 20 19 18 17 15 14 14 12 12 10 9 8 7 6 5 4 3 3 3 3 3 4 5 6 6 7 7 8 8 10 10 11 11 12 14 13 9 12 19 19 16 15 13 11 11 14 16 19 21 20 17 17 13 12 14 12 12 14 5 5 20 30 29 30 33 34 35 34 34 34 32 31 32 33 34 35 36
5 6 9 9 9 13 12 10 13 17 19 20 19 18 17 15 14 13 12 11 9 8 7 6 5 4 3 3 3 4 4 4 5 6 7 7 8 9 9 10 11 11 12 13 13 14 12 10 13 16 14 13 11 10 11 14 17 21 23 23 22 19 18 17 16 16 11 14 15 5 8 23 32 32 34 34 34 35 34 34 34 32 32 33 33 34 35 37
6 7 10 11 10 13 16 13 11 16 20 20 18 17 16 15 14 13 11 10 8 7 6 4 4 3 3 3 4 5 5 6 6 7 8 9 10 10 11 12 13 13 14 13 14 15 14 13 13 11 7 6 8 10 15 20 22 25 26 24 23 21 19 18 16 13 11 15 15 12 17 31 35 33 34 33 32 34 34 34 34 32 32 33 34 35 36 37
7 7 11 14 11 11 17 17 12 14 19 19 18 17 15 13 13 12 10 8 7 5 4 3 2 2 3 3 4 5 6 7 8 8 10 11 11 12 13 14 14 15 15 14 15 16 16 16 16 13 12 13 16 18 20 22 24 26 25 24 23 22 22 20 15 16 18 18 20 24 29 34 36 34 32 30 30 32 34 33 32 32 33 34 34 35 36 38
8 8 10 13 12 12 16 18 15 15 16 16 17 17 14 12 11 10 8 7 5 4 3 2 2 3 4 5 5 6 8 9 9 10 11 12 13 13 14 15 15 16 15 15 16 16 17 19 18 16 18 20 21 22 21 22 24 25 25 25 25 23 24 25 22 23 22 17 20 29 31 32 37 35 30 29 30 32 34 32 32 33 33 34 34 35 37 38
8 10 10 11 13 15 17 17 16 15 14 14 14 15 13 11 9 7 7 5 4 3 2 2 3 4 5 6 7 8 10 11 12 12 13 14 14 15 16 16 16 16 15 16 17 18 19 20 20 20 22 23 23 23 21 21 23 25 26 26 26 26 28 29 28 28 25 22 27 32 31 33 37 33 28 29 31 32 34 33 32 33 33 34 35 36 37 38
10 12 14 13 15 16 17 17 16 14 13 12 12 12 11 9 8 6 5 3 2 1 2 3 4 5 6 7 9 10 11 12 13 14 15 15 16 16 18 17 16 16 17 17 19 19 19 20 21 23 25 26 25 22 20 21 24 28 29 28 28 29 29 30 28 27 27 30 32 32 31 35 34 30 29 31 32 33 35 33 33 34 34 34 35 36 38 38
12 13 14 13 16 17 16 16 16 14 12 11 10 10 9 7 6 4 3 2 2 2 3 5 6 7 8 9 10 11 12 13 14 15 16 17 17 18 18 18 18 18 19 19 19 19 19 20 21 24 28 30 26 21 20 21 25 30 31 27 23 24 26 26 25 25 27 30 29 28 32 35 32 28 30 33 33 35 35 35 35 35 35 36 36 37 38 38
12 14 14 11 13 16 16 15 15 13 11 10 8 8 7 5 4 3 1 1 2 4 5 6 8 9 10 11 12 13 14 15 16 17 18 18 19 19 19 19 19 20 20 19 19 20 20 21 22 23 27 30 28 24 23 24 28 33 30 20 16 19 23 23 23 24 26 28 28 29 33 35 33 29 32 34 34 35 36 36 36 36 36 36 36 37 38 38
12 14 15 12 11 14 15 13 13 12 10 9 7 6 5 3 2 1 3 4 5 6 7 8 10 10 12 12 13 14 15 16 17 18 19 20 20 20 20 20 20 20 20 19 19 20 20 21 23 21 24 30 29 25 27 28 25 24 20 19 22 23 22 22 23 23 24 26 28 31 34 35 32 30 33 35 34 35 37 37 37 36 36 35 36 38 38 39
Wind_Direction
33 35 37 37 35 36 38 41 45 47 46 43 40 37 39 39 41 39 36 32 26 19 12 9 7 9 3 342 324 314 341 356 305 289 285 274 272 266 248 248 252 258 255 250 254 253 255 255 256 256 258 257 248 236 225 218 221 224 220 226 236 241 245 246 259 275 267 259 247 240 235 234 243 250 252 254 256 261 266 268 270 272 268 264 260 257 255 253
39 40 43 43 41 39 40 44 49 53 56 56 55 53 51 48 45 40 36 32 25 17 9 4 359 359 357 342 326 324 343 336 303 289 251 265 280 266 247 246 252 260 261 257 258 261 262 257 256 256 257 255 246 234 216 212 219 226 230 235 241 249 252 251 257 272 264 257 246 237 235 240 251 261 267 269 271 274 274 273 273 273 270 266 261 258 257 255
47 49 51 52 52 52 54 57 61 65 67 65 62 57 53 48 42 37 33 29 24 18 10 6 359 353 347 335 326 329 336 317 294 236 235 291 289 275 269 268 268 267 267 269 268 267 269 266 256 242 246 245 241 235 215 215 221 222 233 240 254 267 257 249 240 241 261 266 256 248 248 253 263 273 279 281 282 281 274 269 271 271 271 270 266 263 262 259
55 57 57 58 60 62 64 67 68 67 65 62 58 52 46 40 35 30 25 21 18 13 8 4 0 355 348 336 328 328 326 311 284 255 273 291 290 285 281 278 279 278 277 276 271 266 265 268 265 250 242 235 238 241 227 224 224 226 240 250 283 285 258 250 242 252 269 270 263 261 260 265 274 279 283 287 286 282 275 273 276 276 273 272 270 269 267 265
60 60 60 61 62 65 68 69 68 64 59 53 46 39 33 26 21 16 12 8 5 2 1 359 357 353 346 340 337 335 325 307 288 278 280 287 294 295 292 294 297 296 290 279 273 271 267 267 269 263 250 234 236 241 233 225 218 229 250 269 285 277 264 258 257 266 273 271 269 271 271 274 279 281 284 287 284 279 277 276 276 275 274 273 271 270 269 270
61 60 57 57 60 65 68 66 62 54 47 39 34 28 22 17 12 7 2 357 353 350 350 350 352 351 346 341 339 338 329 312 296 287 283 288 298 302 303 304 305 303 299 293 286 278 268 263 261 260 252 235 231 229 222 219 221 233 255 269 275 273 264 261 262 267 272 275 278 280 282 284 284 284 283 284 282 278 275 272 270 270 271 272 272 270 270 271
54 55 51 49 55 63 64 57 49 41 35 29 25 20 15 11 6 3 359 355 350 346 343 341 343 345 345 342 337 332 327 318 305 296 291 295 299 300 303 302 302 302 301 300 295 284 279 278 271 269 261 239 227 218 210 213 225 235 249 257 263 263 257 257 260 263 269 275 281 283 285 287 287 285 285 286 284 279 273 268 266 265 266 269 272 272 271 270
41 45 45 44 48 55 53 38 30 26 21 17 14 10 7 3 360 358 356 354 351 347 343 341 340 340 339 337 335 327 321 319 313 309 304 305 306 305 306 304 303 301 297 298 298 295 294 289 275 274 270 246 226 215 210 210 222 232 245 256 259 257 252 251 256 260 264 273 280 283 284 286 287 289 290 288 284 280 276 272 271 269 268 269 270 272 272 271
36 37 39 38 37 32 19 10 8 5 3 1 359 358 356 354 353 352 351 350 349 347 345 343 340 337 333 330 330 323 319 321 316 314 313 314 316 315 313 312 311 306 301 302 302 293 280 273 265 262 257 246 228 217 217 216 222 230 240 254 258 255 253 253 258 263 267 275 281 284 285 285 288 290 289 287 285 282 280 277 277 276 275 275 273 273 274 275
32 34 34 30 26 17 3 354 350 349 348 345 345 346 346 346 346 346 346 346 345 345 344 342 339 334 329 328 328 323 322 322 315 317 322 324 328 327 324 324 321 310 304 304 291 275 272 276 278 273 260 251 241 230 229 229 234 236 236 250 261 265 266 265 266 270 274 278 281 284 287 287 289 289 286 286 285 281 280 280 281 282 282 282 282 280 280 280
15 18 19 16 11 6 358 350 345 341 337 335 335 336 337 339 340 342 342 342 342 342 342 340 335 329 327 330 333 331 326 322 327 336 339 340 338 339 339 335 331 318 310 302 281 273 278 283 281 276 266 258 254 248 246 242 244 245 242 249 265 273 275 276 276 276 278 281 283 285 286 288 289 290 288 288 286 282 281 283 286 288 290 291 291 291 290 287
349 348 346 346 344 340 338 338 337 335 332 329 329 330 333 335 337 339 339 340 340 340 338 334 331 328 328 334 341 343 340 342 351 351 349 354 347 341 340 332 326 317 307 294 282 283 287 288 282 271 260 253 246 245 249 246 243 248 246 237 244 263 270 276 280 282 282 283 282 282 281 281 280 282 286 288 289 288 287 289 291 293 297 300 300 299 297 294
327 325 324 324 323 322 322 324 327 330 330 329 330 330 331 334 336 337 338 339 339 338 336 333 333 331 331 343 357 360 0 2 3 3 358 355 347 337 330 324 316 302 294 287 283 284 280 271 255 229 224 224 222 223 232 239 242 242 239 223 224 250 264 275 288 287 279 275 275 277 275 276 278 281 286 289 291 293 294 297 300 304 307 308 308 306 304 301
315 315 315 315 315 315 314 316 320 323 327 329 330 330 330 333 335 337 338 337 336 336 335 338 343 346 354 10 18 20 24 21 9 360 350 344 341 339 332 325 317 301 290 280 275 265 237 224 215 214 217 214 212 213 213 224 234 221 199 187 207 259 279 298 308 286 266 268 274 277 274 278 285 289 291 294 296 298 301 305 311 314 314 314 313 314 313 310
310 312 312 312 312 311 310 311 314 317 322 326 329 329 328 330 333 335 336 334 334 335 337 343 349 360 22 29 28 27 23 18 6 354 349 346 348 351 349 342 342 331 290 247 232 212 210 219 221 222 220 216 204 182 178 207 221 190 153 122 76 340 320 310 308 282 264 268 273 273 272 278 286 291 294 297 299 301 306 311 316 316 317 319 321 322 322 321
309 311 310 311 310 308 307 306 308 312 316 323 327 328 328 330 332 333 333 333 334 337 342 347 356 13 24 20 25 22 12 5 2 4 2 0 5 7 15 33 58 78 183 189 182 186 212 237 230 228 228 236 149 130 136 177 135 101 112 76 352 322 304 296 292 269 260 264 267 268 270 278 286 290 292 295 298 303 309 313 316 319 324 328 331 333 334 334
312 314 314 314 312 310 306 303 305 307 312 322 326 328 329 329 330 331 331 332 338 349 0 9 23 43 35 25 26 17 10 11 13 15 9 10 20 21 22 25 43 78 175 176 129 114 141 234 237 261 301 39 68 88 29 8 29 8 329 321 313 304 311 308 283 258 258 264 268 271 273 279 284 288 291 295 299 304 310 315 320 327 334 340 344 347 347 347
327 329 331 331 331 329 325 320 319 316 319 326 327 330 331 329 329 329 328 339 359 15 34 41 46 53 38 26 20 14 17 25 23 20 22 21 20 28 28 21 22 8 292 174 110 130 123 103 262 128 85 38 16 2 12 4 330 329 319 314 307 303 327 359 269 257 267 268 272 275 278 282 283 286 290 294 301 307 314 320 327 337 345 351 356 358 358 355
352 355 358 2 6 11 13 12 6 352 339 333 331 331 329 328 327 325 335 4 34 54 57 52 48 44 34 24 19 20 25 31 26 23 29 23 17 27 27 19 13 346 318 296 254 122 81 27 22 31 16 13 10 13 19 9 347 342 316 310 359 343 8 58 79 316 287 275 276 279 283 286 286 289 293 298 306 313 320 326 334 347 355 359 1 1 359 355
6 9 12 16 19 21 21 17 10 358 344 337 333 328 328 329 326 331 4 43 62 65 61 51 43 39 34 26 22 26 34 34 28 28 32 25 23 26 17 15 6 340 354 2 18 61 35 28 46 37 23 22 27 25 16 4 353 348 287 293 55 54 57 62 34 352 314 292 289 296 296 294 295 296 300 307 313 318 324 330 340 354 2 3 2 1 359 356
5 6 7 7 4 3 359 353 350 344 337 334 329 325 329 332 331 345 42 97 81 70 61 50 44 41 38 36 29 30 36 32 25 26 31 30 28 21 12 14 349 323 9 13 24 46 32 50 51 41 31 29 28 20 7 353 347 4 320 145 78 68 83 115 314 295 304 299 295 302 301 297 298 300 305 310 315 321 326 333 344 359 4 3 4 3 1 358
351 347 345 342 339 339 337 336 336 335 333 328 327 328 333 332 333 2 76 97 78 66 56 49 46 42 41 45 40 36 36 23 19 24 31 29 23 21 24 19 3 25 54 40 29 69 63 57 52 39 29 21 6 0 1 346 333 50 118 157 79 62 91 214 279 281 287 298 299 302 298 294 297 300 307 311 315 323 329 334 347 1 3 5 8 6 2 359
334 332 332 330 329 330 330 331 330 331 329 326 331 332 335 335 334 80 114 92 78 68 58 51 46 45 44 46 46 43 42 31 27 30 34 29 20 25 31 34 44 69 68 52 34 89 62 53 47 31 17 3 354 357 5 31 40 63 91 98 53 44 43 249 277 282 285 298 306 307 289 287 295 300 305 312 319 327 331 335 346 356 359 2 5 5 3 2
327 329 330 329 330 328 328 328 325 327 327 329 333 328 337 343 354 131 129 91 75 66 57 48 46 47 43 42 42 37 36 35 31 32 36 32 25 26 31 41 56 75 67 54 47 69 67 55 41 27 10 358 7 19 46 66 62 48 41 42 38 27 359 293 286 286 289 299 310 314 285 280 290 299 303 310 319 325 328 335 346 350 350 354 358 1 2 1
327 330 330 328 328 324 322 322 321 326 327 329 328 326 343 348 137 149 159 90 64 53 48 42 41 43 39 36 33 24 27 30 32 38 41 40 36 31 34 45 57 72 73 62 53 66 66 54 43 38 35 38 47 62 61 59 55 42 31 23 6 349 318 300 296 282 285 301 309 297 277 277 289 297 301 307 313 320 327 335 343 343 343 347 352 355 355 353
327 327 325 323 321 318 318 318 320 326 324 323 324 330 348 343 161 162 155 87 55 44 42 36 35 36 31 32 26 17 19 26 35 43 42 47 52 46 42 52 67 83 89 72 53 61 59 52 58 63 63 69 69 64 58 53 51 40 25 15 351 315 277 281 287 274 275 301 307 276 250 271 290 294 298 302 308 316 327 335 334 335 337 339 345 347 346 346
325 325 324 323 321 322 322 322 323 324 321 321 328 334 333 331 168 177 147 78 39 33 39 39 39 32 27 29 21 15 26 30 36 48 48 56 65 57 45 55 71 84 91 75 64 68 70 71 72 70 70 72 65 57 50 43 45 35 15 8 351 330 297 277 277 267 267 282 291 264 243 266 284 289 295 295 302 314 323 330 328 328 332 333 337 339 338 340
331 331 332 332 333 334 334 332 331 330 333 332 338 348 304 135 153 173 122 78 25 28 37 40 42 34 29 26 13 21 39 37 42 58 58 63 68 58 47 58 69 78 78 79 79 78 78 77 73 67 62 55 49 45 38 33 35 27 10 355 353 350 320 276 212 235 249 258 274 252 228 249 277 282 292 291 293 310 320 324 325 322 325 328 330 333 333 335
345 347 348 348 348 347 345 345 345 346 351 349 354 45 144 136 142 145 89 78 35 38 42 42 41 36 33 21 13 31 42 46 53 58 61 70 75 53 54 67 75 86 84 84 87 82 70 66 64 55 49 44 38 31 24 23 23 19 9 347 339 352 231 144 174 213 227 244 265 248 218 226 278 281 284 289 293 310 322 321 320 317 320 325 326 329 330 332
356 356 356 355 354 353 352 351 354 357 357 358 19 105 134 137 143 131 80 85 79 62 58 56 48 41 39 26 35 48 52 54 55 59 69 77 76 57 60 74 81 89 86 81 82 78 66 62 55 47 44 35 26 16 9 14 13 6 1 352 314 268 202 142 214 226 225 259 246 226 229 231 267 287 285 296 305 314 322 320 316 315 321 325 325 326 328 330
352 351 351 351 352 355 356 353 356 1 357 0 46 119 129 137 143 113 104 118 99 83 72 61 52 50 47 39 51 60 63 66 63 64 74 72 73 75 71 80 84 81 78 74 75 73 68 62 53 51 47 36 28 13 6 10 4 356 357 6 5 277 273 156 263 219 193 287 233 202 308 253 244 277 290 301 309 313 317 316 315 318 322 323 323 325 327 330
346 347 348 349 353 357 1 3 4 11 10 13 73 126 134 133 103 94 122 140 118 102 83 64 56 53 53 53 60 60 63 73 73 74 83 85 86 83 77 80 84 81 72 65 69 70 59 49 45 46 39 37 35 16 14 10 359 357 1 11 25 358 348 302 289 231 230 268 233 246 320 281 257 271 283 293 304 308 310 310 313 317 320 321 322 325 328 329
349 354 355 358 3 3 10 16 16 30 41 50 112 146 153 124 91 109 126 135 137 130 96 68 63 60 62 67 67 64 65 73 74 74 82 85 82 78 75 72 70 70 65 56 57 55 41 29 24 22 17 19 17 11 14 8 2 6 7 14 34 58 38 296 275 309 277 266 265 284 301 281 264 273 282 291 301 304 302 305 312 316 318 320 322 325 326 326
358 2 7 15 15 15 24 29 29 45 62 91 125 151 139 107 111 128 132 132 136 133 104 76 70 68 71 73 73 75 76 77 79 79 80 80 76 73 71 65 62 59 50 38 31 20 18 358 357 3 5 3 1 4 5 0 5 10 8 13 15 30 118 234 251 249 275 282 288 292 288 252 266 289 295 298 302 300 298 304 312 315 317 319 322 324 325 324
4 10 19 22 22 26 35 40 43 55 84 101 124 150 122 112 123 130 130 132 133 127 112 90 72 71 74 75 79 84 85 85 88 87 84 77 70 68 67 64 59 52 43 32 20 8 347 318 330 338 344 350 349 347 347 352 2 3 6 8 350 335 233 249 274 270 278 297 296 282 256 260 282 292 295 298 299 293 295 303 309 314 315 317 320 322 322 322
9 19 24 21 27 33 34 49 59 76 104 104 119 135 121 121 129 129 127 131 128 121 114 97 76 73 73 77 84 87 88 88 86 81 73 63 59 58 56 53 49 46 42 33 26 13 346 322 312 315 328 337 338 334 333 342 350 353 1 4 344 320 271 272 283 284 294 307 280 261 264 277 285 291 295 297 294 288 292 302 308 312 313 315 318 319 318 319
12 25 28 22 32 37 40 64 83 102 106 106 127 124 120 123 128 126 126 127 124 117 108 95 87 86 82 87 91 90 87 81 72 66 62 58 51 43 40 39 36 35 30 24 19 5 350 341 315 305 317 325 328 326 322 326 337 343 355 359 347 314 278 274 279 308 337 307 265 260 267 279 284 292 301 300 292 290 295 303 308 310 312 314 316 316 316 317
18 29 26 23 36 48 61 83 108 106 96 112 127 119 118 124 126 125 125 124 124 118 110 109 104 101 101 100 95 90 85 78 70 61 59 59 45 33 35 31 24 21 16 12 4 353 348 343 327 314 316 320 321 320 317 316 324 332 344 351 349 321 266 268 283 313 325 292 285 269 269 282 283 286 300 304 299 299 302 306 308 309 310 312 312 313 315 317
28 29 19 27 46 60 82 98 98 91 91 121 122 117 119 123 124 125 123 122 124 121 119 120 115 112 110 104 98 92 83 78 71 61 56 54 44 32 25 21 19 13 4 359 352 346 340 325 321 328 323 317 313 313 311 309 314 322 331 343 348 337 281 279 275 255 247 267 291 287 285 284 285 294 304 306 303 302 306 309 308 308 308 310 311 314 317 319
42 40 33 46 61 73 90 92 84 84 111 126 120 119 122 122 121 123 122 122 126 124 123 123 120 120 115 105 103 92 78 72 59 52 52 46 40 23 11 13 11 1 356 353 346 341 336 314 300 322 327 317 308 308 308 308 312 315 324 338 345 343 312 288 276 259 252 235 229 293 295 286 294 307 309 307 305 305 310 311 310 309 310 310 312 315 318 320
53 52 57 64 83 85 76 83 92 107 123 118 117 119 120 121 121 121 121 122 126 126 125 126 123 119 116 105 98 81 66 63 44 37 39 31 28 16 4 357 353 351 349 348 343 338 333 313 294 312 326 319 309 308 307 307 308 310 318 327 334 342 332 293 268 257 246 234 246 249 277 293 304 315 314 311 310 309 313 314 311 311 311 311 314 316 318 321
59 59 70 74 93 86 71 82 106 119 119 115 117 119 119 122 122 121 122 123 126 127 123 125 123 116 110 93 80 61 42 36 22 16 13 9 6 358 352 345 342 342 341 340 339 335 331 315 300 313 323 321 314 310 307 308 305 303 307 310 318 334 329 292 241 255 253 248 262 251 251 294 310 321 318 314 313 314 317 315 311 311 311 313 315 316 319 322
58 63 79 80 90 92 89 104 115 118 119 117 118 119 121 124 123 124 126 124 125 125 120 120 116 109 97 75 57 31 11 354 352 356 354 353 348 341 341 339 336 336 336 335 334 335 333 318 311 318 321 320 317 313 312 313 308 303 303 303 304 314 321 306 269 267 270 261 266 247 228 292 313 323 317 315 316 318 319 314 310 311 312 314 315 316 320 323
68 72 85 84 88 98 101 107 119 124 122 120 122 124 125 126 127 129 129 128 128 125 120 115 109 98 77 59 33 13 3 345 340 342 340 339 335 333 333 332 333 332 330 330 330 332 332 320 316 320 322 326 326 320 319 315 308 304 302 302 298 298 313 314 284 269 265 265 268 225 235 293 317 322 316 319 321 319 317 312 311 313 313 314 315 317 321 322
85 85 95 93 90 102 103 98 113 124 121 122 125 126 127 130 131 131 130 129 128 123 119 110 100 84 57 37 9 359 352 343 339 333 332 333 329 329 329 327 327 324 322 324 324 325 324 319 318 314 305 310 308 306 314 313 307 304 303 303 298 293 302 308 289 260 248 261 260 243 268 300 317 320 319 325 323 316 315 314 313 314 313 314 316 318 320 320
95 97 105 101 94 102 106 105 114 121 119 123 126 126 129 131 129 129 128 126 124 116 110 96 66 38 33 16 355 349 341 339 338 331 331 331 327 326 325 322 322 319 318 317 318 320 318 315 316 309 294 296 301 307 313 310 303 302 304 303 298 293 297 301 282 254 257 261 260 270 287 302 313 322 327 326 319 314 315 315 314 313 313 315 317 318 319 317
102 106 105 103 105 110 110 112 119 121 119 124 126 126 129 129 126 127 125 125 122 106 88 63 31 12 4 354 346 342 336 333 331 329 330 328 326 324 321 320 319 315 314 314 314 316 314 312 314 309 306 308 311 314 313 304 298 299 301 300 297 294 293 292 281 272 273 261 264 288 299 299 307 323 330 322 317 316 316 316 314 313 315 316 317 317 316 314
103 111 107 107 116 119 116 117 121 122 122 125 125 125 127 128 127 127 124 121 114 95 60 16 3 352 347 344 341 337 334 331 329 328 327 325 324 322 319 319 318 314 314 313 313 313 310 311 313 310 310 313 314 315 310 300 298 299 298 297 297 293 290 289 287 285 280 264 271 293 300 296 307 324 327 319 318 317 316 317 316 316 317 317 316 316 314 313
102 108 110 114 119 119 120 121 122 123 125 125 124 123 125 127 124 122 120 110 86 56 9 349 346 343 343 342 339 337 333 330 329 327 326 324 324 321 319 319 317 315 315 312 312 312 309 309 311 310 309 313 316 315 306 301 301 300 299 300 298 294 290 288 287 286 280 273 279 293 295 297 312 326 321 317 318 316 317 318 317 319 319 318 317 315 314 314
109 108 108 116 121 121 123 124 122 125 126 126 126 124 123 125 122 119 118 95 48 2 344 338 339 344 343 339 337 337 334 330 328 328 326 325 324 322 320 319 317 315 314 312 311 311 308 305 309 309 307 312 320 318 307 304 303 301 301 302 298 291 288 286 285 285 281 280 287 294 292 298 316 326 317 317 319 317 318 319 320 321 320 319 318 315 314 314
115 113 108 112 119 120 124 125 124 127 128 126 127 125 124 123 119 113 76 19 356 342 337 335 339 342 339 337 336 335 333 331 328 328 328 326 324 324 321 319 318 315 313 312 309 308 307 303 306 309 305 309 319 318 308 306 303 299 299 302 303 298 292 288 286 284 283 286 292 291 290 301 318 322 315 317 319 319 320 320 321 322 322 320 317 314 314 314
115 114 111 117 122 120 122 125 124 126 130 130 129 127 124 115 94 52 6 354 342 338 337 336 338 338 336 336 335 332 331 330 329 328 329 328 326 325 323 322 322 318 314 311 307 307 307 302 304 307 301 304 315 316 309 308 304 298 301 312 316 309 297 290 287 286 289 290 290 289 295 309 318 315 314 318 319 319 319 320 321 323 322 318 315 314 315 314
Height
3154 3153 3153 3152 3152 3151 3151 3151 3150 3150 3150 3150 3149 3149 3149 3148 3148 3147 3147 3146 3146 3145 3145 3144 3144 3143 3142 3142 3141 3141 3141 3141 3140 3140 3139 3139 3139 3139 3139 3139 3138 3138 3138 3137 3137 3137 3137 3137 3137 3137 3137 3138 3138 3138 3138 3139 3139 3139 3139 3139 3139 3140 3141 3143 3143 3144 3143 3143 3143 3143 3143 3144 3144 3144 3144 3144 3143 3143 3143 3142 3142 3142 3141 3141 3141 3140 3141 3141
3154 3153 3153 3152 3152 3151 3151 3151 3150 3150 3150 3150 3150 3149 3149 3148 3148 3147 3147 3146 3146 3145 3144 3144 3143 3143 3142 3142 3141 3140 3140 3140 3139 3139 3139 3139 3138 3138 3138 3138 3137 3137 3137 3136 3136 3136 3136 3136 3136 3136 3136 3137 3137 3137 3137 3137 3138 3139 3139 3139 3140 3141 3141 3142 3143 3143 3143 3143 3143 3142 3142 3143 3143 3142 3142 3142 3142 3142 3142 3141 3141 3141 3140 3140 3139 3139 3139 3139
3154 3154 3153 3153 3152 3152 3151 3151 3151 3151 3150 3150 3150 3150 3149 3149 3148 3147 3147 3146 3145 3145 3144 3144 3143 3143 3142 3141 3140 3140 3140 3139 3139 3138 3138 3138 3138 3137 3137 3137 3136 3136 3136 3135 3135 3135 3135 3135 3135 3136 3136 3136 3136 3136 3136 3136 3137 3138 3139 3139 3140 3141 3141 3141 3142 3142 3142 3142 3142 3142 3142 3142 3142 3141 3141 3140 3140 3140 3140 3139 3139 3139 3139 3138 3138 3137 3136 3137
3155 3154 3154 3153 3153 3152 3152 3152 3151 3151 3151 3151 3150 3150 3149 3149 3148 3147 3147 3146 3145 3145 3144 3143 3143 3142 3142 3141 3140 3140 3139 3139 3138 3138 3138 3137 3137 3136 3136 3136 3135 3135 3134 3134 3134 3134 3134 3134 3134 3135 3135 3135 3135 3135 3135 3135 3136 3137 3137 3139 3140 3140 3140 3140 3141 3141 3141 3141 3141 3140 3140 3141 3141 3140 3140 3139 3138 3138 3138 3138 3138 3138 3137 3137 3136 3135 3135 3135
3155 3155 3154 3154 3154 3153 3153 3152 3152 3152 3151 3151 3150 3150 3149 3149 3148 3147 3146 3146 3145 3144 3143 3143 3142 3142 3141 3140 3140 3139 3138 3138 3137 3137 3137 3136 3136 3135 3135 3134 3134 3133 3133 3133 3133 3133 3133 3133 3133 3133 3133 3134 3134 3134 3135 3135 3135 3136 3137 3138 3139 3139 3139 3139 3139 3139 3139 3139 3139 3139 3139 3139 3139 3138 3138 3138 3137 3136 3136 3137 3136 3136 3135 3135 3135 3134 3133 3133
3156 3155 3155 3154 3154 3154 3153 3153 3152 3152 3151 3151 3150 3150 3149 3148 3148 3147 3146 3145 3144 3143 3142 3142 3141 3141 3140 3140 3139 3139 3138 3137 3136 3136 3136 3135 3135 3134 3133 3133 3133 3132 3132 3132 3132 3132 3131 3131 3132 3132 3132 3132 3132 3133 3134 3134 3134 3135 3136 3137 3138 3138 3138 3138 3138 3138 3137 3138 3138 3138 3138 3137 3137 3136 3136 3136 3135 3135 3135 3135 3135 3135 3134 3134 3133 3133 3132 3131
3156 3155 3155 3155 3154 3154 3153 3153 3152 3152 3151 3151 3150 3149 3149 3148 3147 3146 3145 3145 3144 3143 3142 3141 3141 3140 3140 3139 3138 3138 3137 3136 3136 3135 3135 3134 3133 3133 3132 3132 3131 3131 3131 3130 3130 3130 3130 3130 3130 3130 3131 3131 3131 3132 3132 3133 3133 3134 3135 3135 3136 3136 3137 3136 3136 3136 3136 3136 3136 3136 3136 3135 3135 3134 3134 3134 3134 3134 3134 3133 3134 3134 3133 3133 3132 3132 3131 3130
3156 3156 3155 3155 3154 3154 3153 3153 3152 3152 3151 3150 3150 3149 3148 3147 3147 3146 3145 3144 3143 3142 3141 3140 3140 3139 3138 3138 3137 3136 3136 3135 3135 3134 3133 3133 3132 3131 3131 3131 3130 3130 3130 3129 3129 3129 3129 3129 3129 3130 3130 3130 3130 3131 3131 3132 3133 3134 3134 3134 3134 3135 3135 3135 3135 3134 3134 3134 3134 3135 3134 3133 3132 3132 3132 3132 3132 3132 3132 3132 3132 3132 3132 3132 3131 3131 3130 3129
3156 3155 3155 3155 3154 3154 3153 3153 3152 3151 3151 3150 3149 3148 3148 3147 3146 3145 3144 3143 3142 3141 3140 3139 3138 3138 3137 3136 3136 3135 3134 3134 3133 3133 3132 3131 3131 3130 3130 3129 3129 3129 3128 3128 3128 3128 3128 3128 3129 3129 3129 3129 3129 3130 3130 3131 3132 3133 3133 3133 3133 3133 3133 3133 3133 3133 3133 3133 3133 3133 3132 3131 3130 3130 3130 3130 3131 3131 3130 3130 3130 3130 3130 3130 3130 3130 3129 3129
3156 3155 3155 3154 3154 3154 3153 3152 3152 3151 3150 3149 3148 3148 3147 3146 3145 3144 3143 3142 3141 3140 3139 3138 3137 3136 3135 3135 3134 3133 3133 3133 3132 3132 3131 3130 3130 3129 3129 3129 3128 3128 3127 3127 3127 3127 3127 3127 3127 3127 3127 3127 3128 3129 3129 3130 3131 3131 3132 3132 3132 3132 3131 3131 3131 3131 3131 3131 3131 3131 3130 3128 3128 3128 3128 3129 3129 3129 3129 3128 3128 3129 3129 3129 3129 3129 3129 3128
3155 3155 3154 3154 3153 3153 3152 3152 3151 3150 3149 3148 3148 3147 3146 3145 3144 3143 3142 3141 3140 3139 3138 3137 3136 3135 3134 3133 3133 3132 3132 3132 3131 3130 3130 3129 3129 3128 3128 3128 3128 3127 3127 3127 3126 3126 3126 3126 3126 3126 3126 3126 3127 3127 3128 3129 3129 3130 3131 3132 3131 3130 3129 3128 3129 3129 3129 3129 3129 3129 3128 3126 3126 3126 3127 3127 3127 3128 3128 3127 3127 3127 3127 3127 3128 3128 3127 3127
3155 3154 3154 3153 3153 3152 3152 3151 3150 3149 3148 3147 3147 3146 3145 3144 3143 3142 3141 3140 3139 3138 3137 3136 3135 3134 3133 3132 3132 3132 3131 3131 3130 3130 3129 3129 3128 3128 3128 3127 3127 3126 3126 3126 3125 3125 3125 3125 3125 3125 3125 3125 3126 3126 3126 3127 3127 3128 3129 3130 3130 3129 3127 3126 3127 3127 3127 3127 3127 3127 3126 3125 3125 3125 3125 3126 3126 3126 3126 3127 3127 3126 3126 3126 3126 3126 3125 3125
3154 3154 3153 3153 3152 3151 3150 3150 3149 3148 3147 3146 3145 3145 3144 3143 3142 3141 3140 3139 3138 3137 3136 3135 3134 3133 3132 3132 3132 3131 3131 3130 3130 3129 3129 3128 3128 3127 3127 3127 3126 3125 3125 3125 3124 3124 3124 3124 3124 3123 3123 3123 3124 3124 3125 3125 3126 3126 3127 3128 3128 3127 3126 3125 3126 3126 3126 3125 3125 3125 3124 3123 3123 3125 3125 3125 3125 3125 3125 3125 3126 3126 3125 3125 3124 3124 3123 3122
3153 3153 3152 3152 3151 3150 3149 3148 3147 3147 3146 3145 3144 3143 3142 3142 3141 3140 3139 3138 3136 3135 3134 3133 3133 3132 3132 3132 3131 3131 3131 3130 3130 3129 3128 3128 3127 3127 3126 3125 3125 3124 3124 3124 3123 3123 3123 3122 3122 3121 3121 3122 3123 3123 3124 3124 3124 3124 3125 3125 3126 3125 3125 3125 3124 3124 3124 3124 3124 3124 3123 3121 3121 3123 3123 3123 3124 3124 3124 3124 3125 3125 3124 3123 3122 3122 3121 3120
3152 3152 3151 3150 3150 3149 3148 3147 3146 3145 3145 3144 3143 3143 3142 3141 3140 3139 3138 3137 3136 3134 3133 3132 3132 3131 3131 3131 3131 3131 3130 3130 3129 3129 3128 3127 3127 3126 3126 3125 3124 3123 3123 3123 3122 3122 3122 3121 3121 3121 3121 3122 3122 3123 3123 3123 3123 3123 3124 3124 3124 3124 3125 3124 3124 3123 3123 3123 3123 3123 3121 3120 3120 3121 3121 3122 3122 3123 3123 3123 3123 3123 3122 3121 3120 3119 3118 3117
3151 3150 3150 3149 3148 3147 3146 3145 3145 3144 3143 3143 3143 3142 3141 3140 3139 3138 3137 3136 3135 3134 3133 3132 3131 3131 3131 3131 3131 3130 3130 3129 3129 3128 3127 3127 3126 3126 3125 3124 3124 3123 3123 3122 3122 3121 3121 3121 3121 3121 3121 3122 3122 3122 3122 3122 3122 3123 3123 3123 3123 3123 3124 3124 3123 3123 3122 3122 3122 3122 3121 3119 3119 3119 3120 3120 3121 3121 3122 3122 3122 3121 3121 3120 3118 3117 3116 3114
3150 3149 3148 3147 3146 3145 3145 3144 3143 3143 3142 3142 3142 3141 3140 3139 3138 3137 3136 3135 3134 3133 3132 3132 3131 3131 3131 3131 3131 3130 3130 3129 3128 3128 3127 3126 3126 3125 3125 3124 3123 3123 3122 3122 3122 3121 3121 3121 3121 3121 3121 3121 3122 3122 3122 3122 3122 3122 3123 3123 3122 3122 3122 3122 3122 3122 3121 3121 3121 3121 3120 3119 3118 3118 3118 3118 3119 3119 3120 3120 3120 3119 3118 3117 3116 3115 3113 3112
3149 3148 3147 3146 3145 3144 3143 3143 3142 3142 3142 3141 3141 3140 3140 3139 3137 3136 3135 3134 3133 3133 3132 3132 3131 3131 3131 3131 3130 3130 3129 3129 3128 3128 3127 3126 3126 3125 3125 3124 3124 3123 3123 3122 3122 3121 3121 3121 3120 3120 3121 3121 3122 3121 3121 3122 3122 3122 3121 3121 3121 3121 3121 3121 3121 3121 3120 3120 3120 3120 3119 3119 3118 3117 3117 3117 3117 3118 3118 3118 3118 3117 3116 3115 3113 3112 3111 3110
3148 3147 3146 3145 3144 3144 3143 3142 3142 3142 3141 3141 3140 3140 3139 3138 3136 3135 3134 3134 3133 3133 3132 3132 3132 3131 3131 3131 3130 3130 3129 3129 3128 3128 3127 3126 3126 3125 3125 3124 3124 3123 3123 3122 3122 3121 3121 3121 3121 3121 3121 3121 3121 3121 3121 3121 3121 3121 3120 3120 3120 3120 3120 3120 3120 3120 3120 3119 3119 3118 3118 3117 3116 3116 3115 3115 3116 3116 3116 3116 3116 3115 3114 3113 3112 3110 3109 3108
3148 3147 3146 3145 3144 3144 3143 3143 3142 3142 3141 3140 3140 3139 3138 3136 3135 3134 3134 3133 3133 3132 3133 3133 3132 3132 3132 3131 3131 3130 3130 3129 3129 3128 3127 3127 3126 3125 3125 3124 3124 3123 3122 3122 3121 3121 3121 3121 3121 3122 3122 3122 3121 3121 3121 3121 3121 3120 3120 3120 3120 3120 3119 3119 3119 3119 3119 3118 3118 3117 3117 3116 3115 3115 3114 3114 3114 3114 3114 3114 3114 3114 3112 3111 3110 3109 3108 3107
3147 3147 3146 3145 3144 3144 3143 3142 3142 3141 3140 3140 3139 3138 3137 3136 3135 3134 3134 3134 3133 3133 3133 3133 3132 3132 3132 3132 3131 3130 3130 3130 3129 3128 3127 3127 3126 3125 3125 3125 3124 3123 3122 3121 3121 3121 3121 3121 3122 3123 3123 3123 3122 3122 3122 3121 3121 3120 3120 3119 3119 3119 3119 3118 3118 3118 3118 3118 3117 3116 3115 3114 3114 3113 3113 3113 3113 3113 3113 3113 3113 3112 3111 3110 3108 3107 3106 3105
3147 3146 3145 3145 3144 3143 3142 3142 3141 3140 3139 3139 3138 3137 3136 3135 3134 3134 3133 3133 3133 3133 3133 3133 3133 3133 3133 3132 3131 3131 3131 3131 3130 3129 3127 3126 3126 3125 3125 3125 3124 3123 3122 3122 3122 3122 3122 3122 3123 3124 3123 3123 3123 3122 3122 3122 3121 3120 3120 3119 3119 3119 3119 3118 3117 3117 3117 3117 3116 3115 3114 3113 3112 3112 3111 3111 3111 3111 3111 3111 3111 3110 3109 3108 3107 3106 3105 3104
3146 3146 3145 3144 3143 3142 3141 3141 3140 3139 3138 3137 3136 3136 3135 3134 3134 3133 3133 3133 3133 3134 3134 3134 3134 3134 3133 3132 3132 3132 3132 3131 3130 3129 3127 3126 3126 3125 3125 3124 3123 3123 3123 3123 3123 3122 3122 3123 3124 3124 3124 3124 3123 3122 3122 3121 3120 3120 3119 3119 3119 3119 3119 3118 3117 3117 3116 3116 3115 3114 3113 3112 3111 3110 3110 3110 3109 3109 3109 3109 3109 3108 3107 3106 3105 3104 3103 3102
3145 3144 3143 3143 3142 3141 3140 3140 3139 3138 3137 3136 3136 3135 3134 3134 3133 3133 3133 3133 3133 3134 3135 3135 3134 3134 3134 3133 3132 3132 3132 3131 3130 3129 3127 3127 3126 3125 3125 3125 3124 3123 3123 3124 3123 3122 3123 3124 3124 3124 3125 3124 3123 3123 3121 3121 3120 3119 3119 3119 3119 3119 3118 3117 3116 3116 3116 3115 3114 3113 3112 3111 3110 3109 3108 3108 3108 3108 3108 3108 3107 3107 3106 3105 3104 3103 3102 3101
3144 3143 3142 3141 3141 3140 3139 3138 3138 3137 3136 3135 3135 3134 3133 3133 3133 3133 3133 3133 3134 3135 3135 3135 3135 3134 3134 3133 3133 3132 3132 3131 3130 3129 3128 3127 3127 3126 3125 3125 3125 3124 3124 3125 3124 3123 3124 3125 3125 3125 3125 3124 3123 3122 3121 3121 3120 3119 3119 3119 3118 3118 3117 3116 3116 3115 3115 3114 3113 3113 3112 3110 3108 3108 3107 3107 3107 3106 3106 3106 3106 3105 3104 3103 3102 3101 3100 3099
3143 3142 3141 3140 3139 3139 3138 3137 3136 3136 3135 3134 3134 3133 3132 3133 3132 3133 3133 3133 3134 3135 3135 3135 3135 3135 3134 3133 3133 3132 3132 3131 3130 3129 3129 3128 3127 3127 3126 3126 3125 3125 3126 3126 3125 3124 3125 3126 3126 3126 3125 3124 3123 3122 3121 3121 3120 3119 3119 3118 3118 3117 3116 3115 3115 3115 3114 3113 3113 3113 3112 3110 3107 3107 3106 3105 3105 3105 3105 3104 3104 3103 3102 3101 3100 3099 3098 3097
3141 3140 3139 3138 3138 3137 3136 3136 3135 3134 3134 3133 3133 3132 3132 3132 3132 3132 3132 3133 3135 3137 3136 3136 3135 3136 3135 3133 3133 3132 3131 3131 3130 3130 3129 3129 3128 3128 3127 3127 3126 3126 3126 3126 3126 3126 3127 3127 3127 3126 3125 3125 3123 3122 3122 3121 3120 3120 3119 3118 3117 3116 3116 3115 3114 3114 3114 3113 3113 3112 3111 3110 3107 3105 3105 3104 3104 3103 3103 3103 3102 3101 3100 3099 3098 3097 3096 3095
3140 3139 3138 3137 3136 3136 3135 3134 3134 3133 3133 3132 3132 3131 3131 3131 3132 3132 3132 3134 3138 3138 3137 3137 3136 3136 3135 3134 3134 3132 3132 3132 3131 3131 3130 3129 3129 3129 3128 3128 3127 3127 3127 3127 3127 3128 3128 3128 3127 3126 3125 3124 3123 3123 3123 3122 3121 3120 3119 3118 3117 3116 3115 3114 3114 3114 3113 3113 3112 3110 3111 3110 3106 3103 3103 3102 3102 3102 3101 3101 3100 3099 3098 3097 3096 3095 3094 3093
3139 3138 3137 3136 3135 3135 3134 3133 3133 3132 3132 3131 3131 3131 3131 3131 3132 3132 3132 3136 3140 3139 3138 3138 3137 3137 3136 3135 3135 3133 3132 3132 3131 3130 3130 3130 3130 3130 3129 3128 3129 3128 3128 3128 3127 3128 3129 3128 3127 3127 3125 3125 3124 3124 3124 3123 3122 3121 3120 3118 3117 3116 3115 3114 3114 3113 3113 3112 3111 3109 3110 3109 3104 3101 3101 3101 3100 3100 3099 3099 3098 3097 3096 3095 3094 3093 3091 3090
3139 3138 3136 3136 3135 3134 3133 3133 3132 3132 3131 3131 3131 3131 3131 3131 3132 3132 3134 3138 3140 3139 3139 3139 3138 3138 3137 3137 3136 3134 3133 3132 3131 3131 3131 3131 3131 3131 3130 3130 3130 3130 3129 3129 3128 3128 3129 3129 3128 3127 3126 3126 3125 3125 3124 3123 3122 3121 3120 3118 3117 3116 3115 3114 3114 3113 3113 3112 3110 3109 3109 3109 3105 3099 3099 3099 3098 3097 3097 3096 3096 3095 3094 3092 3091 3090 3089 3087
3138 3137 3136 3135 3134 3133 3133 3132 3132 3131 3131 3131 3131 3131 3131 3132 3132 3133 3136 3139 3140 3140 3140 3139 3139 3139 3138 3137 3136 3135 3134 3133 3133 3133 3132 3132 3132 3132 3131 3131 3131 3131 3130 3130 3129 3129 3130 3129 3128 3128 3127 3127 3126 3125 3124 3123 3122 3121 3120 3118 3117 3116 3115 3114 3113 3113 3113 3111 3109 3109 3108 3109 3105 3098 3097 3097 3096 3095 3094 3094 3093 3092 3091 3090 3088 3087 3086 3084
3138 3137 3136 3135 3134 3133 3133 3132 3131 3131 3131 3131 3131 3131 3131 3132 3132 3134 3137 3139 3139 3140 3140 3140 3140 3139 3138 3138 3137 3136 3136 3135 3135 3135 3134 3134 3134 3133 3132 3132 3132 3132 3131 3131 3131 3130 3130 3129 3129 3128 3128 3127 3126 3126 3124 3123 3122 3120 3118 3117 3116 3116 3116 3114 3114 3114 3113 3110 3109 3108 3108 3106 3102 3097 3096 3096 3094 3093 3092 3091 3090 3089 3088 3087 3086 3084 3083 3081
3137 3136 3135 3134 3134 3133 3132 3132 3131 3131 3131 3131 3131 3131 3131 3132 3134 3136 3137 3138 3139 3140 3141 3140 3140 3140 3139 3139 3138 3137 3137 3136 3136 3136 3135 3135 3135 3134 3133 3133 3133 3132 3132 3132 3131 3131 3130 3129 3129 3128 3128 3126 3125 3125 3124 3122 3121 3119 3117 3116 3116 3117 3118 3116 3115 3114 3112 3109 3108 3108 3107 3103 3098 3096 3096 3094 3093 3092 3090 3089 3088 3087 3086 3084 3083 3082 3080 3078
3137 3136 3135 3134 3133 3133 3132 3132 3131 3131 3131 3130 3131 3131 3131 3132 3135 3137 3137 3138 3139 3140 3141 3141 3141 3140 3140 3139 3139 3139 3138 3138 3137 3137 3137 3136 3136 3135 3134 3134 3134 3133 3133 3132 3132 3131 3130 3129 3129 3128 3127 3126 3125 3124 3124 3123 3121 3119 3118 3117 3116 3117 3118 3116 3115 3113 3110 3108 3106 3105 3103 3099 3095 3095 3094 3092 3091 3090 3089 3088 3086 3085 3083 3082 3080 3078 3077 3075
3136 3136 3135 3134 3134 3133 3132 3132 3131 3131 3131 3131 3131 3131 3132 3134 3136 3137 3138 3139 3140 3140 3141 3141 3141 3141 3141 3140 3140 3140 3139 3139 3139 3139 3138 3137 3137 3136 3136 3135 3134 3134 3133 3132 3132 3131 3130 3130 3128 3127 3127 3126 3125 3124 3123 3122 3121 3120 3119 3117 3116 3116 3116 3115 3113 3111 3109 3108 3104 3101 3099 3096 3094 3093 3092 3091 3090 3088 3087 3086 3084 3083 3081 3079 3078 3075 3074 3072
3136 3135 3135 3134 3134 3133 3132 3132 3131 3131 3131 3131 3131 3132 3133 3135 3136 3137 3139 3140 3140 3141 3142 3142 3142 3142 3141 3141 3141 3141 3140 3140 3140 3139 3139 3138 3137 3137 3137 3136 3135 3134 3133 3133 3132 3131 3130 3129 3128 3127 3126 3125 3125 3123 3123 3122 3121 3120 3119 3118 3116 3115 3115 3114 3112 3109 3109 3108 3103 3098 3096 3094 3093 3092 3090 3090 3088 3087 3086 3084 3083 3081 3079 3077 3076 3073 3071 3069
3136 3135 3135 3135 3134 3133 3132 3132 3132 3131 3131 3131 3132 3132 3134 3135 3137 3138 3139 3140 3141 3142 3142 3142 3142 3142 3142 3142 3142 3141 3141 3141 3140 3140 3139 3138 3138 3138 3137 3136 3135 3135 3134 3134 3133 3132 3131 3129 3128 3127 3126 3125 3124 3123 3122 3121 3121 3120 3119 3117 3116 3114 3114 3113 3111 3109 3109 3108 3101 3096 3095 3093 3091 3089 3088 3088 3087 3085 3084 3082 3081 3079 3077 3075 3073 3071 3069 3066
3136 3136 3135 3135 3134 3133 3132 3132 3132 3131 3131 3132 3132 3133 3135 3136 3138 3139 3140 3141 3142 3142 3142 3142 3143 3143 3143 3142 3142 3142 3142 3141 3141 3140 3140 3139 3139 3138 3138 3137 3136 3135 3134 3134 3133 3132 3131 3129 3128 3127 3125 3124 3123 3122 3121 3120 3120 3119 3118 3117 3115 3114 3113 3112 3111 3109 3109 3108 3102 3095 3093 3091 3089 3088 3086 3085 3084 3083 3082 3080 3078 3076 3074 3072 3070 3068 3065 3063
3136 3136 3135 3135 3134 3134 3133 3132 3132 3131 3132 3132 3133 3134 3136 3138 3139 3140 3141 3142 3142 3142 3143 3143 3143 3143 3143 3143 3143 3143 3142 3142 3141 3141 3140 3140 3139 3139 3138 3137 3136 3135 3134 3134 3133 3132 3131 3130 3128 3126 3125 3124 3122 3121 3120 3119 3118 3118 3117 3116 3115 3114 3113 3111 3111 3109 3107 3107 3103 3096 3091 3088 3087 3086 3084 3083 3082 3081 3079 3077 3076 3073 3071 3069 3066 3064 3062 3059
3137 3136 3135 3135 3134 3134 3133 3132 3132 3132 3132 3133 3134 3135 3137 3139 3140 3141 3142 3142 3143 3143 3143 3143 3143 3144 3144 3143 3143 3143 3143 3142 3142 3141 3141 3140 3139 3139 3138 3137 3136 3136 3135 3134 3133 3132 3130 3129 3128 3126 3125 3123 3121 3120 3119 3117 3117 3116 3115 3115 3114 3113 3112 3110 3109 3107 3106 3105 3104 3099 3091 3084 3084 3084 3082 3081 3080 3078 3077 3074 3072 3069 3067 3065 3062 3060 3058 3055
3137 3136 3136 3135 3135 3134 3134 3132 3132 3133 3134 3135 3136 3137 3138 3140 3141 3142 3142 3143 3143 3144 3144 3144 3144 3144 3144 3144 3144 3144 3143 3143 3142 3142 3141 3140 3140 3139 3138 3137 3137 3136 3135 3134 3133 3132 3130 3129 3127 3125 3124 3123 3121 3120 3118 3117 3116 3114 3113 3113 3112 3112 3111 3110 3107 3105 3104 3103 3101 3100 3091 3081 3081 3083 3080 3079 3078 3075 3073 3070 3067 3065 3063 3061 3059 3056 3054 3051
3137 3137 3136 3136 3135 3134 3134 3134 3134 3135 3135 3136 3137 3138 3139 3141 3142 3142 3143 3144 3144 3144 3145 3145 3145 3145 3145 3145 3144 3144 3144 3143 3143 3142 3141 3140 3140 3139 3138 3137 3136 3135 3134 3133 3132 3131 3130 3128 3126 3124 3123 3121 3119 3118 3117 3116 3114 3113 3113 3111 3110 3110 3109 3109 3107 3103 3102 3100 3098 3099 3092 3080 3078 3080 3078 3076 3075 3072 3070 3066 3063 3061 3060 3058 3055 3053 3050 3047
3138 3137 3136 3136 3135 3134 3134 3136 3136 3136 3137 3137 3138 3140 3141 3142 3143 3143 3144 3144 3145 3145 3145 3145 3145 3145 3145 3145 3145 3144 3144 3143 3142 3142 3141 3140 3139 3139 3138 3137 3136 3135 3134 3133 3132 3130 3129 3127 3125 3123 3121 3120 3118 3117 3116 3115 3113 3112 3111 3109 3108 3107 3106 3106 3104 3101 3100 3097 3095 3096 3090 3079 3076 3078 3075 3074 3072 3069 3066 3063 3060 3058 3056 3054 3052 3049 3046 3043
3138 3138 3137 3137 3136 3135 3136 3137 3137 3137 3138 3139 3140 3141 3142 3143 3143 3144 3145 3145 3145 3146 3146 3146 3146 3146 3146 3145 3145 3144 3144 3143 3142 3142 3141 3140 3139 3138 3137 3136 3135 3134 3133 3132 3131 3129 3128 3126 3125 3122 3120 3117 3116 3115 3114 3113 3112 3110 3108 3107 3106 3105 3104 3103 3101 3100 3098 3093 3092 3093 3086 3077 3076 3076 3072 3071 3068 3065 3063 3060 3057 3055 3052 3050 3048 3045 3042 3039
3139 3139 3138 3138 3138 3137 3137 3138 3139 3139 3139 3140 3141 3142 3143 3144 3144 3145 3146 3146 3146 3147 3147 3147 3147 3146 3146 3146 3145 3144 3144 3143 3142 3142 3141 3140 3139 3138 3137 3136 3135 3133 3132 3131 3130 3129 3127 3126 3124 3123 3121 3118 3115 3114 3113 3111 3109 3107 3105 3104 3103 3102 3101 3100 3098 3098 3094 3090 3089 3087 3079 3073 3074 3074 3070 3069 3066 3062 3059 3057 3053 3051 3049 3046 3044 3041 3038 3035
3139 3139 3139 3139 3139 3139 3138 3139 3141 3141 3141 3141 3142 3143 3144 3145 3146 3146 3147 3147 3147 3147 3147 3147 3147 3147 3146 3146 3145 3145 3144 3143 3142 3141 3140 3139 3138 3137 3136 3135 3134 3133 3131 3130 3129 3128 3126 3124 3123 3122 3120 3118 3115 3113 3112 3109 3107 3104 3102 3101 3100 3099 3098 3097 3096 3093 3090 3087 3084 3080 3076 3071 3070 3070 3068 3066 3063 3060 3057 3054 3051 3048 3046 3043 3040 3037 3034 3032
3140 3140 3140 3139 3140 3141 3140 3140 3142 3143 3143 3144 3144 3144 3146 3146 3147 3147 3147 3148 3148 3148 3148 3148 3147 3147 3146 3146 3145 3144 3144 3143 3142 3141 3140 3139 3138 3136 3135 3134 3133 3131 3130 3129 3128 3127 3125 3123 3121 3119 3118 3116 3114 3112 3110 3108 3104 3102 3100 3099 3097 3096 3095 3093 3091 3088 3087 3085 3079 3075 3075 3071 3066 3066 3065 3062 3060 3057 3053 3051 3048 3045 3043 3040 3037 3034 3032 3029
3140 3140 3140 3140 3141 3142 3142 3142 3143 3144 3145 3146 3146 3146 3147 3147 3148 3148 3148 3148 3148 3148 3148 3148 3148 3147 3146 3146 3145 3144 3143 3142 3141 3141 3139 3138 3137 3136 3134 3133 3132 3130 3129 3128 3127 3125 3123 3121 3119 3117 3115 3114 3112 3110 3108 3106 3103 3100 3098 3096 3094 3093 3091 3088 3086 3084 3084 3081 3074 3071 3072 3068 3063 3063 3062 3059 3056 3053 3050 3048 3045 3042 3040 3037 3034 3031 3029 3026
3141 3141 3141 3142 3142 3142 3143 3144 3145 3146 3147 3147 3147 3147 3148 3148 3149 3149 3149 3149 3149 3149 3148 3148 3148 3147 3146 3146 3145 3144 3143 3142 3141 3140 3139 3137 3136 3135 3133 3132 3130 3129 3128 3127 3125 3124 3122 3119 3117 3115 3112 3111 3110 3108 3106 3103 3101 3097 3095 3093 3092 3089 3086 3084 3082 3081 3079 3075 3071 3070 3068 3064 3062 3061 3058 3055 3053 3049 3046 3044 3041 3039 3036 3033 3030 3027 3024 3021
3142 3142 3142 3143 3143 3144 3145 3145 3146 3147 3148 3148 3149 3149 3149 3149 3149 3149 3150 3149 3149 3149 3149 3148 3148 3147 3146 3145 3144 3144 3143 3141 3140 3139 3138 3136 3135 3134 3132 3130 3129 3128 3126 3125 3123 3122 3120 3118 3116 3113 3109 3107 3107 3105 3103 3101 3098 3094 3091 3090 3088 3086 3083 3080 3079 3077 3075 3071 3069 3068 3064 3060 3059 3058 3055 3052 3049 3045 3042 3040 3037 3035 3032 3029 3026 3023 3020 3017
3143 3143 3143 3145 3145 3145 3146 3147 3147 3148 3149 3149 3149 3150 3150 3150 3150 3150 3150 3150 3150 3149 3149 3148 3147 3147 3146 3145 3144 3143 3142 3141 3139 3138 3137 3135 3134 3132 3131 3129 3127 3126 3124 3123 3121 3120 3118 3116 3114 3112 3107 3103 3103 3102 3099 3098 3095 3090 3086 3086 3085 3083 3079 3077 3076 3074 3071 3068 3066 3065 3060 3056 3055 3054 3051 3048 3045 3041 3038 3036 3033 3031 3028 3025 3021 3019 3016 3014
3145 3144 3144 3146 3147 3147 3147 3148 3148 3149 3149 3150 3150 3150 3150 3150 3151 3150 3150 3150 3150 3149 3149 3148 3147 3146 3145 3144 3143 3142 3141 3140 3138 3137 3135 3134 3132 3130 3129 3127 3126 3124 3122 3121 3120 3118 3117 3114 3112 3111 3106 3100 3100 3100 3096 3094 3091 3085 3082 3082 3081 3079 3076 3073 3072 3071 3069 3066 3063 3060 3056 3054 3052 3050 3047 3044 3042 3038 3035 3032 3030 3027 3024 3021 3017 3015 3012 3009